"Sample Date","Sample Time","Sample Value","Units","Flow Rate","Laser Status","Micron Size 0","Counts/Channel 0","Micron Size 1","Counts/Channel 1","Micron Size 2","Counts/Channel 2","Micron Size 3","Counts/Channel 3","Micron Size 4","Counts/Channel 4","Micron Size 5","Counts/Channel 5","Micron Size 6","Counts/Channel 6","Micron Size 7","Counts/Channel 7","Micron Size 8","Counts/Channel 8","Micron Size 9","Counts/Channel 9","Micron Size 10","Counts/Channel 10","Micron Size 11","Counts/Channel 11","Micron Size 12","Counts/Channel 12","Micron Size 13","Counts/Channel 13","Micron Size 14","Counts/Channel 14","Micron Size 15","Counts/Channel 15","Micron Size 16","Counts/Channel 16","Micron Size 17","Counts/Channel 17","Micron Size 18","Counts/Channel 18","Micron Size 19","Counts/Channel 19","Micron Size 20","Counts/Channel 20","Micron Size 21","Counts/Channel 21","Micron Size 22","Counts/Channel 22","Micron Size 23","Counts/Channel 23","Micron Size 24","Counts/Channel 24","Micron Size 25","Counts/Channel 25","Micron Size 26","Counts/Channel 26","Micron Size 27","Counts/Channel 27","Micron Size 28","Counts/Channel 28","Micron Size 29","Counts/Channel 29","Micron Size 30","Counts/Channel 30","Micron Size 31","Counts/Channel 31"
"03/01/08","20:00:04",19692.000,"cc",28333.022,1,0.100,16121.000,0.200,1115.000,0.300,937.000,0.500,1035.000,1.000,484.000,5.000,0
"03/01/08","20:00:10",19856.000,"cc",28309.232,1,0.100,16282.000,0.200,1145.000,0.300,911.000,0.500,1039.000,1.000,478.000,5.000,1.000
"03/01/08","20:00:16",19826.000,"cc",28333.162,1,0.100,16249.000,0.200,1100.000,0.300,886.000,0.500,1148.000,1.000,443.000,5.000,0
"03/01/08","20:00:22",19781.000,"cc",28292.184,1,0.100,16099.000,0.200,1196.000,0.300,907.000,0.500,1126.000,1.000,453.000,5.000,0
"03/01/08","20:00:28",19886.000,"cc",28297.838,1,0.100,16150.000,0.200,1225.000,0.300,903.000,0.500,1108.000,1.000,500.000,5.000,0
"03/01/08","20:00:34",20204.000,"cc",28348.678,1,0.100,16530.000,0.200,1182.000,0.300,890.000,0.500,1126.000,1.000,476.000,5.000,0
"03/01/08","20:00:40",19797.000,"cc",28317.461,1,0.100,16220.000,0.200,1101.000,0.300,901.000,0.500,1129.000,1.000,446.000,5.000,0
"03/01/08","20:00:46",19950.000,"cc",28322.486,1,0.100,16252.000,0.200,1216.000,0.300,894.000,0.500,1079.000,1.000,509.000,5.000,0
"03/01/08","20:00:52",19963.000,"cc",28320.000,1,0.100,16310.000,0.200,1123.000,0.300,948.000,0.500,1095.000,1.000,487.000,5.000,0
"03/01/08","20:00:58",19792.000,"cc",28339.463,1,0.100,16102.000,0.200,1160.000,0.300,900.000,0.500,1079.000,1.000,551.000,5.000,0
"03/01/08","20:01:04",20171.000,"cc",28283.746,1,0.100,16344.000,0.200,1188.000,0.300,960.000,0.500,1147.000,1.000,532.000,5.000,0
"03/01/08","20:01:10",20138.000,"cc",28283.719,1,0.100,16536.000,0.200,1079.000,0.300,919.000,0.500,1098.000,1.000,506.000,5.000,0
"03/01/08","20:01:16",19741.000,"cc",28298.188,1,0.100,16163.000,0.200,1193.000,0.300,842.000,0.500,1032.000,1.000,511.000,5.000,0
"03/01/08","20:01:22",20109.000,"cc",28328.561,1,0.100,16278.000,0.200,1238.000,0.300,969.000,0.500,1083.000,1.000,541.000,5.000,0
"03/01/08","20:01:28",20006.000,"cc",28290.580,1,0.100,16248.000,0.200,1194.000,0.300,937.000,0.500,1111.000,1.000,516.000,5.000,0
"03/01/08","20:01:34",19900.000,"cc",28334.965,1,0.100,16191.000,0.200,1136.000,0.300,925.000,0.500,1109.000,1.000,539.000,5.000,0
"03/01/08","20:01:40",19886.000,"cc",28288.607,1,0.100,16168.000,0.200,1163.000,0.300,926.000,0.500,1146.000,1.000,483.000,5.000,0
"03/01/08","20:01:46",19875.000,"cc",28352.772,1,0.100,16315.000,0.200,1098.000,0.300,919.000,0.500,1043.000,1.000,500.000,5.000,0
"03/01/08","20:01:52",19701.000,"cc",28335.488,1,0.100,16026.000,0.200,1123.000,0.300,959.000,0.500,1083.000,1.000,510.000,5.000,0
"03/01/08","20:01:58",19938.000,"cc",28349.648,1,0.100,16413.000,0.200,1088.000,0.300,851.000,0.500,1152.000,1.000,434.000,5.000,0
"03/01/08","20:02:04",19341.000,"cc",28342.293,1,0.100,15776.000,0.200,1042.000,0.300,926.000,0.500,1124.000,1.000,473.000,5.000,0
"03/01/08","20:02:10",19807.000,"cc",28307.514,1,0.100,16145.000,0.200,1137.000,0.300,865.000,0.500,1162.000,1.000,498.000,5.000,0
"03/01/08","20:02:16",19815.000,"cc",28242.965,1,0.100,16212.000,0.200,1191.000,0.300,914.000,0.500,1005.000,1.000,492.000,5.000,1.000
"03/01/08","20:02:22",19649.000,"cc",28349.463,1,0.100,16000.000,0.200,1174.000,0.300,898.000,0.500,1079.000,1.000,498.000,5.000,0
"03/01/08","20:02:28",19710.000,"cc",28280.150,1,0.100,16163.000,0.200,1108.000,0.300,923.000,0.500,1073.000,1.000,443.000,5.000,0
"03/01/08","20:02:34",20049.000,"cc",28295.668,1,0.100,16392.000,0.200,1144.000,0.300,929.000,0.500,1123.000,1.000,461.000,5.000,0
"03/01/08","20:02:40",19902.000,"cc",28321.283,1,0.100,16195.000,0.200,1162.000,0.300,939.000,0.500,1132.000,1.000,474.000,5.000,0
"03/01/08","20:02:46",19757.000,"cc",28340.029,1,0.100,16120.000,0.200,1156.000,0.300,896.000,0.500,1096.000,1.000,489.000,5.000,0
"03/01/08","20:02:52",19709.000,"cc",28275.531,1,0.100,16041.000,0.200,1112.000,0.300,987.000,0.500,1083.000,1.000,486.000,5.000,0
"03/01/08","20:02:58",19442.000,"cc",28325.297,1,0.100,15806.000,0.200,1094.000,0.300,946.000,0.500,1103.000,1.000,493.000,5.000,0
"03/01/08","20:03:04",19843.000,"cc",28326.719,1,0.100,16169.000,0.200,1131.000,0.300,907.000,0.500,1114.000,1.000,522.000,5.000,0
"03/01/08","20:03:10",19747.000,"cc",28344.215,1,0.100,16087.000,0.200,1147.000,0.300,921.000,0.500,1110.000,1.000,482.000,5.000,0
"03/01/08","20:03:16",19913.000,"cc",28304.678,1,0.100,16243.000,0.200,1133.000,0.300,920.000,0.500,1096.000,1.000,521.000,5.000,0
"03/01/08","20:03:22",19750.000,"cc",28280.160,1,0.100,16097.000,0.200,1072.000,0.300,982.000,0.500,1098.000,1.000,501.000,5.000,0
"03/01/08","20:03:28",19872.000,"cc",28286.680,1,0.100,16189.000,0.200,1174.000,0.300,934.000,0.500,1081.000,1.000,494.000,5.000,0
"03/01/08","20:03:34",19580.000,"cc",28301.940,1,0.100,16040.000,0.200,1118.000,0.300,927.000,0.500,1012.000,1.000,483.000,5.000,0
"03/01/08","20:03:40",19733.000,"cc",28325.260,1,0.100,16155.000,0.200,1146.000,0.300,892.000,0.500,1034.000,1.000,506.000,5.000,0
"03/01/08","20:03:46",19684.000,"cc",28336.363,1,0.100,16134.000,0.200,1120.000,0.300,879.000,0.500,1063.000,1.000,488.000,5.000,0
"03/01/08","20:03:52",19668.000,"cc",28269.285,1,0.100,16192.000,0.200,1111.000,0.300,866.000,0.500,1065.000,1.000,434.000,5.000,0
"03/01/08","20:03:58",19830.000,"cc",28404.092,1,0.100,16214.000,0.200,1090.000,0.300,952.000,0.500,1091.000,1.000,483.000,5.000,0
"03/01/08","20:04:04",19484.000,"cc",28314.965,1,0.100,15889.000,0.200,1156.000,0.300,893.000,0.500,1048.000,1.000,498.000,5.000,0
"03/01/08","20:04:10",19456.000,"cc",28326.744,1,0.100,15852.000,0.200,1147.000,0.300,884.000,0.500,1070.000,1.000,503.000,5.000,0
"03/01/08","20:04:16",19804.000,"cc",28346.967,1,0.100,16110.000,0.200,1175.000,0.300,896.000,0.500,1087.000,1.000,536.000,5.000,0
"03/01/08","20:04:22",19681.000,"cc",28260.039,1,0.100,16021.000,0.200,1196.000,0.300,917.000,0.500,1065.000,1.000,482.000,5.000,0
"03/01/08","20:04:28",19523.000,"cc",28326.170,1,0.100,16007.000,0.200,1186.000,0.300,835.000,0.500,1072.000,1.000,423.000,5.000,0
"03/01/08","20:04:34",19623.000,"cc",28268.943,1,0.100,15957.000,0.200,1145.000,0.300,927.000,0.500,1111.000,1.000,483.000,5.000,0
"03/01/08","20:04:40",19753.000,"cc",28369.440,1,0.100,16093.000,0.200,1102.000,0.300,953.000,0.500,1111.000,1.000,494.000,5.000,0
"03/01/08","20:04:46",19658.000,"cc",28308.617,1,0.100,16144.000,0.200,1126.000,0.300,836.000,0.500,1080.000,1.000,472.000,5.000,0
"03/01/08","20:04:52",19803.000,"cc",28383.063,1,0.100,16129.000,0.200,1162.000,0.300,910.000,0.500,1109.000,1.000,493.000,5.000,0
"03/01/08","20:04:58",19108.000,"cc",28314.166,1,0.100,15767.000,0.200,1057.000,0.300,818.000,0.500,1001.000,1.000,465.000,5.000,0
"03/01/08","20:05:04",19414.000,"cc",28318.201,1,0.100,15814.000,0.200,1119.000,0.300,904.000,0.500,1072.000,1.000,505.000,5.000,0
"03/01/08","20:05:10",19746.000,"cc",28279.809,1,0.100,15988.000,0.200,1141.000,0.300,967.000,0.500,1105.000,1.000,545.000,5.000,0
"03/01/08","20:05:16",19775.000,"cc",28349.828,1,0.100,16043.000,0.200,1162.000,0.300,923.000,0.500,1165.000,1.000,482.000,5.000,0
"03/01/08","20:05:22",19333.000,"cc",28325.272,1,0.100,15768.000,0.200,1139.000,0.300,849.000,0.500,1120.000,1.000,457.000,5.000,0
"03/01/08","20:05:28",19530.000,"cc",28321.268,1,0.100,15926.000,0.200,1140.000,0.300,882.000,0.500,1070.000,1.000,512.000,5.000,0
"03/01/08","20:05:34",19416.000,"cc",28263.523,1,0.100,15835.000,0.200,1123.000,0.300,887.000,0.500,1101.000,1.000,470.000,5.000,0
"03/01/08","20:05:40",21495.000,"cc",28306.283,1,0.100,16806.000,0.200,1595.000,0.300,1217.000,0.500,1316.000,1.000,561.000,5.000,0
"03/01/08","20:05:46",19426.000,"cc",28286.006,1,0.100,15835.000,0.200,1171.000,0.300,887.000,0.500,1036.000,1.000,497.000,5.000,0
"03/01/08","20:05:52",19539.000,"cc",28408.248,1,0.100,15945.000,0.200,1131.000,0.300,917.000,0.500,1048.000,1.000,498.000,5.000,0
"03/01/08","20:05:58",19291.000,"cc",28367.098,1,0.100,15683.000,0.200,1134.000,0.300,862.000,0.500,1114.000,1.000,498.000,5.000,0
"03/01/08","20:06:04",19580.000,"cc",28315.563,1,0.100,16060.000,0.200,1090.000,0.300,937.000,0.500,1051.000,1.000,442.000,5.000,0
"03/01/08","20:06:10",19676.000,"cc",28311.580,1,0.100,16118.000,0.200,1116.000,0.300,932.000,0.500,1034.000,1.000,476.000,5.000,0
"03/01/08","20:06:16",19204.000,"cc",28280.092,1,0.100,15696.000,0.200,1143.000,0.300,853.000,0.500,1051.000,1.000,461.000,5.000,0
"03/01/08","20:06:22",19396.000,"cc",28325.356,1,0.100,15828.000,0.200,1108.000,0.300,895.000,0.500,1073.000,1.000,492.000,5.000,0
"03/01/08","20:06:28",19577.000,"cc",28337.242,1,0.100,15911.000,0.200,1101.000,0.300,911.000,0.500,1180.000,1.000,474.000,5.000,0
"03/01/08","20:06:34",19606.000,"cc",28291.834,1,0.100,16126.000,0.200,1116.000,0.300,845.000,0.500,1054.000,1.000,465.000,5.000,0
"03/01/08","20:06:40",19290.000,"cc",28329.100,1,0.100,15641.000,0.200,1213.000,0.300,882.000,0.500,1056.000,1.000,498.000,5.000,0
"03/01/08","20:06:46",19494.000,"cc",28349.322,1,0.100,15927.000,0.200,1104.000,0.300,898.000,0.500,1053.000,1.000,512.000,5.000,0
"03/01/08","20:06:52",19329.000,"cc",28289.072,1,0.100,15715.000,0.200,1121.000,0.300,919.000,0.500,1089.000,1.000,485.000,5.000,0
"03/01/08","20:06:58",19665.000,"cc",28290.668,1,0.100,16058.000,0.200,1146.000,0.300,907.000,0.500,1087.000,1.000,467.000,5.000,0
"03/01/08","20:07:04",19350.000,"cc",28334.555,1,0.100,15737.000,0.200,1178.000,0.300,880.000,0.500,1069.000,1.000,486.000,5.000,0
"03/01/08","20:07:10",19500.000,"cc",28313.412,1,0.100,15768.000,0.200,1183.000,0.300,931.000,0.500,1144.000,1.000,474.000,5.000,0
"03/01/08","20:07:16",19365.000,"cc",28340.523,1,0.100,15790.000,0.200,1166.000,0.300,910.000,0.500,1052.000,1.000,447.000,5.000,0
"03/01/08","20:07:22",19321.000,"cc",28309.900,1,0.100,15770.000,0.200,1100.000,0.300,891.000,0.500,1106.000,1.000,454.000,5.000,0
"03/01/08","20:07:28",19343.000,"cc",28285.594,1,0.100,15774.000,0.200,1124.000,0.300,872.000,0.500,1103.000,1.000,470.000,5.000,0
"03/01/08","20:07:34",19719.000,"cc",28308.426,1,0.100,16075.000,0.200,1154.000,0.300,916.000,0.500,1070.000,1.000,504.000,5.000,0
"03/01/08","20:07:40",19615.000,"cc",28322.936,1,0.100,16012.000,0.200,1121.000,0.300,861.000,0.500,1116.000,1.000,505.000,5.000,0
"03/01/08","20:07:46",19666.000,"cc",28349.811,1,0.100,16055.000,0.200,1146.000,0.300,883.000,0.500,1087.000,1.000,495.000,5.000,0
"03/01/08","20:07:52",19476.000,"cc",28274.697,1,0.100,15831.000,0.200,1098.000,0.300,935.000,0.500,1133.000,1.000,479.000,5.000,0
"03/01/08","20:07:58",19625.000,"cc",28315.680,1,0.100,16011.000,0.200,1190.000,0.300,856.000,0.500,1089.000,1.000,479.000,5.000,0
"03/01/08","20:08:04",19436.000,"cc",28288.551,1,0.100,15950.000,0.200,1104.000,0.300,898.000,0.500,1039.000,1.000,445.000,5.000,0
"03/01/08","20:08:10",19665.000,"cc",28383.516,1,0.100,16086.000,0.200,1104.000,0.300,856.000,0.500,1092.000,1.000,527.000,5.000,0
"03/01/08","20:08:16",19400.000,"cc",28334.648,1,0.100,15766.000,0.200,1128.000,0.300,901.000,0.500,1086.000,1.000,519.000,5.000,0
"03/01/08","20:08:22",19383.000,"cc",28280.385,1,0.100,15895.000,0.200,1090.000,0.300,867.000,0.500,1037.000,1.000,494.000,5.000,0
"03/01/08","20:08:28",19538.000,"cc",28299.248,1,0.100,15807.000,0.200,1178.000,0.300,911.000,0.500,1122.000,1.000,520.000,5.000,0
"03/01/08","20:08:34",19498.000,"cc",28303.922,1,0.100,15929.000,0.200,1132.000,0.300,914.000,0.500,1036.000,1.000,487.000,5.000,0
"03/01/08","20:08:40",19733.000,"cc",28293.133,1,0.100,16140.000,0.200,1146.000,0.300,863.000,0.500,1081.000,1.000,503.000,5.000,0
"03/01/08","20:08:46",19599.000,"cc",28368.844,1,0.100,16039.000,0.200,1170.000,0.300,874.000,0.500,1055.000,1.000,461.000,5.000,0
"03/01/08","20:08:52",19612.000,"cc",28266.977,1,0.100,15963.000,0.200,1171.000,0.300,919.000,0.500,1087.000,1.000,472.000,5.000,0
"03/01/08","20:08:58",19364.000,"cc",28296.676,1,0.100,15720.000,0.200,1126.000,0.300,970.000,0.500,1080.000,1.000,468.000,5.000,0
"03/01/08","20:09:04",19626.000,"cc",28336.498,1,0.100,16029.000,0.200,1120.000,0.300,911.000,0.500,1058.000,1.000,508.000,5.000,0
"03/01/08","20:09:10",19249.000,"cc",28283.328,1,0.100,15701.000,0.200,1110.000,0.300,886.000,0.500,1069.000,1.000,483.000,5.000,0
"03/01/08","20:09:16",19398.000,"cc",28342.457,1,0.100,15947.000,0.200,1084.000,0.300,933.000,0.500,976.000,1.000,458.000,5.000,0
"03/01/08","20:09:22",19384.000,"cc",28286.752,1,0.100,15763.000,0.200,1159.000,0.300,885.000,0.500,1106.000,1.000,471.000,5.000,0
"03/01/08","20:09:28",19146.000,"cc",28333.475,1,0.100,15599.000,0.200,1135.000,0.300,910.000,0.500,1046.000,1.000,456.000,5.000,0
"03/01/08","20:09:34",19344.000,"cc",28272.533,1,0.100,15798.000,0.200,1158.000,0.300,873.000,0.500,1030.000,1.000,485.000,5.000,0
"03/01/08","20:09:40",19308.000,"cc",28352.715,1,0.100,15779.000,0.200,1171.000,0.300,840.000,0.500,1037.000,1.000,481.000,5.000,0
"03/01/08","20:09:46",19249.000,"cc",28400.561,1,0.100,15905.000,0.200,1065.000,0.300,817.000,0.500,1021.000,1.000,441.000,5.000,0
"03/01/08","20:09:52",19210.000,"cc",28278.629,1,0.100,15621.000,0.200,1076.000,0.300,916.000,0.500,1082.000,1.000,515.000,5.000,0
"03/01/08","20:09:58",22066.000,"cc",28287.871,1,0.100,17388.000,0.200,1681.000,0.300,1177.000,0.500,1246.000,1.000,574.000,5.000,0
"03/01/08","20:10:04",19638.000,"cc",28297.070,1,0.100,16010.000,0.200,1215.000,0.300,881.000,0.500,1071.000,1.000,461.000,5.000,0
"03/01/08","20:10:10",19236.000,"cc",28317.645,1,0.100,15608.000,0.200,1131.000,0.300,962.000,0.500,1054.000,1.000,481.000,5.000,0
"03/01/08","20:10:16",19355.000,"cc",28281.951,1,0.100,15898.000,0.200,1104.000,0.300,848.000,0.500,1044.000,1.000,461.000,5.000,0
"03/01/08","20:10:22",19080.000,"cc",28382.973,1,0.100,15648.000,0.200,1093.000,0.300,831.000,0.500,1033.000,1.000,475.000,5.000,0
"03/01/08","20:10:28",19036.000,"cc",28364.012,1,0.100,15607.000,0.200,1063.000,0.300,867.000,0.500,986.000,1.000,513.000,5.000,0
"03/01/08","20:10:34",19391.000,"cc",28263.633,1,0.100,15810.000,0.200,1129.000,0.300,854.000,0.500,1105.000,1.000,493.000,5.000,0
"03/01/08","20:10:40",19091.000,"cc",28354.287,1,0.100,15630.000,0.200,1080.000,0.300,865.000,0.500,1062.000,1.000,454.000,5.000,0
"03/01/08","20:10:46",19204.000,"cc",28260.547,1,0.100,15759.000,0.200,1107.000,0.300,881.000,0.500,1004.000,1.000,453.000,5.000,0
"03/01/08","20:10:52",19223.000,"cc",28247.664,1,0.100,15741.000,0.200,1085.000,0.300,874.000,0.500,1048.000,1.000,475.000,5.000,0
"03/01/08","20:10:58",19241.000,"cc",28326.715,1,0.100,15730.000,0.200,1127.000,0.300,884.000,0.500,1013.000,1.000,487.000,5.000,0
"03/01/08","20:11:04",18931.000,"cc",28384.238,1,0.100,15489.000,0.200,1059.000,0.300,907.000,0.500,1028.000,1.000,448.000,5.000,0
"03/01/08","20:11:10",19058.000,"cc",28324.877,1,0.100,15528.000,0.200,1134.000,0.300,891.000,0.500,1066.000,1.000,439.000,5.000,0
"03/01/08","20:11:16",19021.000,"cc",28310.096,1,0.100,15546.000,0.200,1080.000,0.300,887.000,0.500,1005.000,1.000,503.000,5.000,0
"03/01/08","20:11:22",18919.000,"cc",28280.508,1,0.100,15564.000,0.200,1077.000,0.300,828.000,0.500,1028.000,1.000,422.000,5.000,0
"03/01/08","20:11:28",19120.000,"cc",28283.768,1,0.100,15657.000,0.200,1116.000,0.300,824.000,0.500,1063.000,1.000,460.000,5.000,0
"03/01/08","20:11:34",18899.000,"cc",28323.006,1,0.100,15517.000,0.200,1071.000,0.300,846.000,0.500,1021.000,1.000,444.000,5.000,0
"03/01/08","20:11:40",18944.000,"cc",28341.150,1,0.100,15552.000,0.200,1107.000,0.300,809.000,0.500,1009.000,1.000,467.000,5.000,0
"03/01/08","20:11:46",19133.000,"cc",28377.106,1,0.100,15679.000,0.200,1124.000,0.300,827.000,0.500,1003.000,1.000,500.000,5.000,0
"03/01/08","20:11:52",18865.000,"cc",28292.910,1,0.100,15457.000,0.200,1093.000,0.300,835.000,0.500,998.000,1.000,482.000,5.000,0
"03/01/08","20:11:58",18853.000,"cc",28289.541,1,0.100,15429.000,0.200,1105.000,0.300,864.000,0.500,1024.000,1.000,431.000,5.000,0
"03/01/08","20:12:04",18892.000,"cc",28282.576,1,0.100,15434.000,0.200,1126.000,0.300,844.000,0.500,1045.000,1.000,443.000,5.000,0
"03/01/08","20:12:10",18860.000,"cc",28313.955,1,0.100,15447.000,0.200,1069.000,0.300,847.000,0.500,1030.000,1.000,467.000,5.000,0
"03/01/08","20:12:16",20994.000,"cc",28271.934,1,0.100,16673.000,0.200,1579.000,0.300,1089.000,0.500,1127.000,1.000,526.000,5.000,0
"03/01/08","20:12:22",18818.000,"cc",28387.807,1,0.100,15453.000,0.200,1072.000,0.300,808.000,0.500,1026.000,1.000,459.000,5.000,0
"03/01/08","20:12:28",18785.000,"cc",28300.760,1,0.100,15345.000,0.200,1066.000,0.300,862.000,0.500,1042.000,1.000,470.000,5.000,0
"03/01/08","20:12:34",18914.000,"cc",28261.147,1,0.100,15510.000,0.200,1082.000,0.300,855.000,0.500,995.000,1.000,472.000,5.000,0
"03/01/08","20:12:40",19056.000,"cc",28299.002,1,0.100,15577.000,0.200,1048.000,0.300,848.000,0.500,1119.000,1.000,464.000,5.000,0
"03/01/08","20:12:46",19952.000,"cc",28321.912,1,0.100,16084.000,0.200,1303.000,0.300,976.000,0.500,1119.000,1.000,470.000,5.000,0
"03/01/08","20:12:52",19042.000,"cc",28409.736,1,0.100,15622.000,0.200,1119.000,0.300,814.000,0.500,1013.000,1.000,474.000,5.000,0
"03/01/08","20:12:58",18954.000,"cc",28243.668,1,0.100,15495.000,0.200,1072.000,0.300,872.000,0.500,1030.000,1.000,485.000,5.000,0
"03/01/08","20:13:04",18888.000,"cc",28324.506,1,0.100,15529.000,0.200,1061.000,0.300,839.000,0.500,984.000,1.000,475.000,5.000,0
"03/01/08","20:13:10",18751.000,"cc",28378.277,1,0.100,15475.000,0.200,1014.000,0.300,829.000,0.500,1005.000,1.000,428.000,5.000,0
"03/01/08","20:13:16",19186.000,"cc",28300.250,1,0.100,15723.000,0.200,1122.000,0.300,867.000,0.500,1015.000,1.000,459.000,5.000,0
"03/01/08","20:13:22",18869.000,"cc",28290.172,1,0.100,15471.000,0.200,1090.000,0.300,807.000,0.500,1012.000,1.000,489.000,5.000,0
"03/01/08","20:13:28",18691.000,"cc",28353.600,1,0.100,15284.000,0.200,1036.000,0.300,827.000,0.500,1080.000,1.000,464.000,5.000,0
"03/01/08","20:13:34",18984.000,"cc",28279.916,1,0.100,15578.000,0.200,1065.000,0.300,841.000,0.500,1049.000,1.000,451.000,5.000,0
"03/01/08","20:13:40",18741.000,"cc",28325.244,1,0.100,15398.000,0.200,1099.000,0.300,831.000,0.500,990.000,1.000,423.000,5.000,0
"03/01/08","20:13:46",18661.000,"cc",28385.195,1,0.100,15200.000,0.200,1190.000,0.300,793.000,0.500,1023.000,1.000,454.000,5.000,1.000
"03/01/08","20:13:52",18682.000,"cc",28403.357,1,0.100,15320.000,0.200,1016.000,0.300,875.000,0.500,1019.000,1.000,452.000,5.000,0
"03/01/08","20:13:58",18585.000,"cc",28242.494,1,0.100,15209.000,0.200,1069.000,0.300,852.000,0.500,1022.000,1.000,433.000,5.000,0
"03/01/08","20:14:04",18630.000,"cc",28336.170,1,0.100,15270.000,0.200,1059.000,0.300,859.000,0.500,976.000,1.000,466.000,5.000,0
"03/01/08","20:14:10",18794.000,"cc",28352.266,1,0.100,15441.000,0.200,1030.000,0.300,866.000,0.500,1006.000,1.000,451.000,5.000,0
"03/01/08","20:14:16",18631.000,"cc",28279.998,1,0.100,15283.000,0.200,1069.000,0.300,828.000,0.500,991.000,1.000,460.000,5.000,0
"03/01/08","20:14:22",18651.000,"cc",28237.088,1,0.100,15198.000,0.200,1058.000,0.300,909.000,0.500,1019.000,1.000,467.000,5.000,0
"03/01/08","20:14:28",18790.000,"cc",28323.481,1,0.100,15389.000,0.200,1073.000,0.300,862.000,0.500,1024.000,1.000,442.000,5.000,0
"03/01/08","20:14:34",18982.000,"cc",28343.365,1,0.100,15644.000,0.200,1051.000,0.300,811.000,0.500,1032.000,1.000,444.000,5.000,0
"03/01/08","20:14:40",18776.000,"cc",28307.197,1,0.100,15315.000,0.200,1042.000,0.300,840.000,0.500,1083.000,1.000,496.000,5.000,0
"03/01/08","20:14:46",18749.000,"cc",28314.664,1,0.100,15344.000,0.200,1072.000,0.300,875.000,0.500,1000.000,1.000,458.000,5.000,0
"03/01/08","20:14:52",18792.000,"cc",28344.471,1,0.100,15387.000,0.200,1045.000,0.300,882.000,0.500,1040.000,1.000,438.000,5.000,0
"03/01/08","20:14:58",19075.000,"cc",28331.479,1,0.100,15550.000,0.200,1168.000,0.300,843.000,0.500,1045.000,1.000,469.000,5.000,0
"03/01/08","20:15:04",18476.000,"cc",28320.869,1,0.100,15104.000,0.200,1023.000,0.300,921.000,0.500,970.000,1.000,458.000,5.000,0
"03/01/08","20:15:10",18683.000,"cc",28314.027,1,0.100,15281.000,0.200,1085.000,0.300,846.000,0.500,984.000,1.000,487.000,5.000,0
"03/01/08","20:15:16",18881.000,"cc",28304.742,1,0.100,15556.000,0.200,1058.000,0.300,801.000,0.500,1030.000,1.000,436.000,5.000,0
"03/01/08","20:15:22",18860.000,"cc",28360.750,1,0.100,15424.000,0.200,1069.000,0.300,878.000,0.500,1032.000,1.000,457.000,5.000,0
"03/01/08","20:15:28",18773.000,"cc",28307.723,1,0.100,15474.000,0.200,1055.000,0.300,840.000,0.500,964.000,1.000,440.000,5.000,0
"03/01/08","20:15:34",18866.000,"cc",28341.510,1,0.100,15407.000,0.200,1093.000,0.300,824.000,0.500,1052.000,1.000,490.000,5.000,0
"03/01/08","20:15:40",18846.000,"cc",28295.059,1,0.100,15483.000,0.200,1044.000,0.300,845.000,0.500,1020.000,1.000,454.000,5.000,0
"03/01/08","20:15:46",18504.000,"cc",28356.856,1,0.100,15176.000,0.200,1100.000,0.300,810.000,0.500,984.000,1.000,434.000,5.000,0
"03/01/08","20:15:52",18771.000,"cc",28331.229,1,0.100,15340.000,0.200,1087.000,0.300,865.000,0.500,997.000,1.000,482.000,5.000,0
"03/01/08","20:15:58",18454.000,"cc",28312.682,1,0.100,15096.000,0.200,1033.000,0.300,868.000,0.500,995.000,1.000,462.000,5.000,0
"03/01/08","20:16:04",18658.000,"cc",28271.129,1,0.100,15264.000,0.200,1073.000,0.300,897.000,0.500,964.000,1.000,460.000,5.000,0
"03/01/08","20:16:10",18828.000,"cc",28319.102,1,0.100,15439.000,0.200,1063.000,0.300,794.000,0.500,1054.000,1.000,478.000,5.000,0
"03/01/08","20:16:16",18842.000,"cc",28387.436,1,0.100,15412.000,0.200,1082.000,0.300,842.000,0.500,1021.000,1.000,485.000,5.000,0
"03/01/08","20:16:22",18749.000,"cc",28267.602,1,0.100,15329.000,0.200,1063.000,0.300,863.000,0.500,1077.000,1.000,417.000,5.000,0
"03/01/08","20:16:28",18607.000,"cc",28327.275,1,0.100,15231.000,0.200,1055.000,0.300,828.000,0.500,1038.000,1.000,455.000,5.000,0
"03/01/08","20:16:34",18890.000,"cc",28229.281,1,0.100,15511.000,0.200,1043.000,0.300,842.000,0.500,1010.000,1.000,484.000,5.000,0
"03/01/08","20:16:40",18654.000,"cc",28326.551,1,0.100,15220.000,0.200,1102.000,0.300,831.000,0.500,1025.000,1.000,476.000,5.000,0
"03/01/08","20:16:46",18794.000,"cc",28332.398,1,0.100,15278.000,0.200,1127.000,0.300,874.000,0.500,1054.000,1.000,461.000,5.000,0
"03/01/08","20:16:52",18935.000,"cc",28357.020,1,0.100,15407.000,0.200,1129.000,0.300,865.000,0.500,1032.000,1.000,502.000,5.000,0
"03/01/08","20:16:58",18792.000,"cc",28249.234,1,0.100,15495.000,0.200,1051.000,0.300,826.000,0.500,987.000,1.000,433.000,5.000,0
"03/01/08","20:17:04",18747.000,"cc",28345.047,1,0.100,15235.000,0.200,1077.000,0.300,886.000,0.500,1109.000,1.000,440.000,5.000,0
"03/01/08","20:17:10",19030.000,"cc",28350.902,1,0.100,15698.000,0.200,1036.000,0.300,814.000,0.500,1003.000,1.000,479.000,5.000,0